TimeCST,TemperatureF,Dew PointF,Humidity,Sea Level PressureIn,VisibilityMPH,Wind Direction,Wind SpeedMPH,Gust SpeedMPH,PrecipitationIn,Events,Conditions,WindDirDegrees,DateUTC
12:15 AM,28.2,23.7,83,30.15,10.0,SSW,10.4,-,N/A,,Clear,200,2013-11-14 06:15:00
12:35 AM,27.5,23.4,84,30.14,10.0,South,10.4,-,N/A,,Clear,190,2013-11-14 06:35:00
12:55 AM,27.9,23.7,84,30.14,10.0,South,10.4,-,N/A,,Clear,190,2013-11-14 06:55:00
1:15 AM,27.5,23.2,84,30.13,10.0,South,10.4,-,N/A,,Clear,180,2013-11-14 07:15:00
1:35 AM,27.5,23.4,84,30.13,10.0,South,10.4,-,N/A,,Clear,170,2013-11-14 07:35:00
1:55 AM,27.3,23.0,84,30.12,10.0,South,9.2,-,N/A,,Clear,170,2013-11-14 07:55:00
2:15 AM,26.2,22.3,85,30.12,10.0,South,8.1,-,N/A,,Clear,180,2013-11-14 08:15:00
2:35 AM,26.6,23.0,86,30.11,10.0,South,10.4,-,N/A,,Clear,190,2013-11-14 08:35:00
2:55 AM,27.7,23.4,84,30.10,10.0,South,10.4,-,N/A,,Clear,190,2013-11-14 08:55:00
3:15 AM,27.7,23.0,83,30.09,10.0,South,9.2,-,N/A,,Clear,190,2013-11-14 09:15:00
3:35 AM,28.0,23.4,83,30.09,10.0,SSW,9.2,-,N/A,,Clear,200,2013-11-14 09:35:00
3:55 AM,29.1,23.7,80,30.08,10.0,SSW,11.5,-,N/A,,Clear,200,2013-11-14 09:55:00
4:15 AM,29.1,23.7,80,30.08,10.0,SSW,11.5,-,N/A,,Clear,200,2013-11-14 10:15:00
4:35 AM,29.1,23.7,80,30.08,10.0,SSW,11.5,-,N/A,,Clear,200,2013-11-14 10:35:00
4:55 AM,27.5,23.2,84,30.07,10.0,South,11.5,-,N/A,,Clear,190,2013-11-14 10:55:00
5:15 AM,27.5,23.4,84,30.06,10.0,South,11.5,-,N/A,,Clear,190,2013-11-14 11:15:00
5:35 AM,27.3,23.4,85,30.06,10.0,South,10.4,-,N/A,,Clear,190,2013-11-14 11:35:00
5:55 AM,27.0,23.0,85,30.06,10.0,South,10.4,-,N/A,,Clear,190,2013-11-14 11:55:00
6:15 AM,26.4,22.6,86,30.05,10.0,South,9.2,-,N/A,,Clear,190,2013-11-14 12:15:00
6:35 AM,26.6,23.0,86,30.06,10.0,South,10.4,-,N/A,,Clear,190,2013-11-14 12:35:00
6:55 AM,27.1,23.4,86,30.06,10.0,South,10.4,-,N/A,,Clear,190,2013-11-14 12:55:00
7:15 AM,27.7,23.9,86,30.06,10.0,South,10.4,-,N/A,,Clear,190,2013-11-14 13:15:00
7:35 AM,28.8,24.8,85,30.06,10.0,South,10.4,-,N/A,,Clear,190,2013-11-14 13:35:00
7:55 AM,31.3,26.1,81,30.05,10.0,South,12.7,-,N/A,,Clear,190,2013-11-14 13:55:00
8:15 AM,33.1,26.8,78,30.05,10.0,SSW,15.0,-,N/A,,Clear,200,2013-11-14 14:15:00
8:35 AM,34.9,27.5,74,30.05,10.0,SSW,13.8,-,N/A,,Clear,200,2013-11-14 14:35:00
8:55 AM,36.5,27.7,70,30.05,10.0,SSW,15.0,20.7,N/A,,Clear,210,2013-11-14 14:55:00
9:15 AM,38.5,28.0,66,30.04,10.0,SSW,16.1,19.6,N/A,,Clear,210,2013-11-14 15:15:00
9:35 AM,40.3,27.5,60,30.04,10.0,SW,17.3,25.3,N/A,,Clear,220,2013-11-14 15:35:00
9:55 AM,42.1,27.5,56,30.04,10.0,SW,19.6,24.2,N/A,,Clear,220,2013-11-14 15:55:00
10:15 AM,43.2,27.5,54,30.04,10.0,SW,19.6,25.3,N/A,,Clear,230,2013-11-14 16:15:00
10:35 AM,44.6,27.7,52,30.03,10.0,SW,17.3,23.0,N/A,,Clear,220,2013-11-14 16:35:00
10:55 AM,45.5,27.5,49,30.02,10.0,SW,13.8,25.3,N/A,,Clear,230,2013-11-14 16:55:00
11:15 AM,46.4,27.3,47,30.01,10.0,SW,16.1,-,N/A,,Clear,230,2013-11-14 17:15:00
11:35 AM,46.6,27.9,48,30.00,10.0,SW,16.1,-,N/A,,Clear,220,2013-11-14 17:35:00
11:55 AM,47.1,27.7,47,29.99,10.0,SW,17.3,23.0,N/A,,Clear,220,2013-11-14 17:55:00
12:15 PM,47.5,28.0,47,29.98,10.0,SW,16.1,23.0,N/A,,Clear,220,2013-11-14 18:15:00
12:35 PM,48.6,28.0,45,29.97,10.0,SW,18.4,24.2,N/A,,Clear,220,2013-11-14 18:35:00
12:55 PM,48.9,28.6,45,29.97,10.0,SW,19.6,26.5,N/A,,Clear,230,2013-11-14 18:55:00
1:15 PM,48.6,28.9,47,29.96,10.0,SW,16.1,24.2,N/A,,Clear,220,2013-11-14 19:15:00
1:35 PM,48.6,29.1,47,29.96,10.0,SW,16.1,-,N/A,,Clear,220,2013-11-14 19:35:00
1:55 PM,49.3,29.7,47,29.94,10.0,SSW,16.1,-,N/A,,Clear,210,2013-11-14 19:55:00
2:15 PM,49.5,29.8,47,29.94,10.0,SSW,12.7,-,N/A,,Clear,210,2013-11-14 20:15:00
2:35 PM,49.6,30.7,48,29.93,10.0,SSW,10.4,19.6,N/A,,Clear,200,2013-11-14 20:35:00
2:55 PM,48.9,30.7,50,29.92,10.0,SSW,12.7,19.6,N/A,,Clear,200,2013-11-14 20:55:00
3:15 PM,48.2,30.6,51,29.92,10.0,South,16.1,20.7,N/A,,Clear,190,2013-11-14 21:15:00
3:35 PM,47.5,30.2,51,29.93,10.0,SSW,13.8,20.7,N/A,,Clear,200,2013-11-14 21:35:00
3:55 PM,47.3,29.8,51,29.93,10.0,SSW,13.8,19.6,N/A,,Clear,200,2013-11-14 21:55:00
4:15 PM,46.4,30.0,53,29.94,10.0,SSW,11.5,-,N/A,,Clear,200,2013-11-14 22:15:00
4:35 PM,44.4,30.9,59,29.95,10.0,SSW,8.1,-,N/A,,Clear,200,2013-11-14 22:35:00
4:55 PM,42.6,31.6,65,29.96,10.0,SSW,5.8,-,N/A,,Clear,200,2013-11-14 22:55:00
5:15 PM,39.9,31.6,72,29.96,10.0,SSW,9.2,-,N/A,,Clear,200,2013-11-14 23:15:00
5:35 PM,39.4,31.1,72,29.96,10.0,SSW,8.1,-,N/A,,Clear,200,2013-11-14 23:35:00
5:55 PM,38.3,30.7,74,29.95,10.0,South,8.1,-,N/A,,Clear,190,2013-11-14 23:55:00
6:15 PM,38.3,30.7,74,29.95,10.0,SSW,8.1,-,N/A,,Scattered Clouds,200,2013-11-15 00:15:00
6:35 PM,39.2,30.6,71,29.96,10.0,SSW,5.8,-,N/A,,Scattered Clouds,200,2013-11-15 00:35:00
6:55 PM,38.3,30.7,74,29.96,10.0,South,8.1,-,N/A,,Clear,190,2013-11-15 00:55:00
7:15 PM,38.3,30.9,75,29.96,10.0,South,6.9,-,N/A,,Clear,190,2013-11-15 01:15:00
7:35 PM,37.6,30.7,76,29.96,10.0,SSW,6.9,-,N/A,,Clear,200,2013-11-15 01:35:00
7:55 PM,36.9,30.2,77,29.96,10.0,SSW,6.9,-,N/A,,Clear,200,2013-11-15 01:55:00
8:15 PM,36.5,30.0,77,29.96,10.0,South,6.9,-,N/A,,Clear,190,2013-11-15 02:15:00
8:35 PM,36.5,30.0,77,29.96,10.0,South,6.9,-,N/A,,Clear,190,2013-11-15 02:35:00
8:55 PM,36.7,30.2,77,29.96,10.0,South,8.1,-,N/A,,Scattered Clouds,190,2013-11-15 02:55:00
9:15 PM,38.1,30.6,74,29.96,10.0,South,9.2,-,N/A,,Mostly Cloudy,180,2013-11-15 03:15:00
9:35 PM,37.6,30.4,75,29.96,10.0,South,8.1,-,N/A,,Scattered Clouds,190,2013-11-15 03:35:00
9:55 PM,36.7,29.7,76,29.96,10.0,SSW,9.2,-,N/A,,Clear,200,2013-11-15 03:55:00
10:15 PM,35.8,29.3,77,29.95,10.0,South,9.2,-,N/A,,Clear,190,2013-11-15 04:15:00
10:35 PM,36.5,29.8,77,29.95,10.0,South,9.2,-,N/A,,Clear,190,2013-11-15 04:35:00
10:55 PM,36.5,29.7,76,29.95,10.0,SSW,10.4,-,N/A,,Clear,200,2013-11-15 04:55:00
11:15 PM,36.7,29.8,76,29.96,10.0,South,10.4,-,N/A,,Clear,190,2013-11-15 05:15:00
11:35 PM,37.6,29.8,74,29.95,10.0,SSW,10.4,-,N/A,,Clear,200,2013-11-15 05:35:00
11:55 PM,37.0,29.8,75,29.95,10.0,SSW,10.4,-,N/A,,Clear,200,2013-11-15 05:55:00